Time,TemperatureF,DewpointF,PressureIn,WindDirection,WindDirectionDegrees,WindSpeedMPH,WindSpeedGustMPH,Humidity,HourlyPrecipIn,Conditions,Clouds,dailyrainin,SolarRadiationWatts/m^2,SoftwareType,DateUTC
2013-06-06 00:02:00,60.0,42.0,-100.00,SW,214,3.0,5.0,52,0.00,,,0.00,0.000000,,2013-06-06 07:02:00,
2013-06-06 00:12:00,60.0,42.0,-100.00,SW,214,3.0,5.0,52,0.00,,,0.00,0.000000,,2013-06-06 07:12:00,
2013-06-06 00:22:00,60.0,42.0,-100.00,SW,214,3.0,5.0,52,0.00,,,0.00,0.000000,,2013-06-06 07:22:00,
2013-06-06 00:31:00,59.0,42.0,-100.00,SSW,204,3.0,6.0,53,0.00,,,0.00,0.000000,,2013-06-06 07:31:00,
2013-06-06 00:52:00,59.0,42.0,-100.00,SSW,204,3.0,6.0,53,0.00,,,0.00,0.000000,,2013-06-06 07:52:00,
2013-06-06 01:02:00,59.0,42.0,-100.00,SSW,204,3.0,6.0,53,0.00,,,0.00,0.000000,,2013-06-06 08:02:00,
2013-06-06 01:12:00,59.0,42.0,-100.00,SSW,204,3.0,6.0,53,0.00,,,0.00,0.000000,,2013-06-06 08:12:00,
2013-06-06 01:22:00,59.0,42.0,-100.00,SSW,204,3.0,6.0,53,0.00,,,0.00,0.000000,,2013-06-06 08:22:00,
2013-06-06 01:31:00,57.0,44.0,-100.00,SSW,208,1.0,5.0,61,0.00,,,0.00,0.000000,,2013-06-06 08:31:00,
2013-06-06 01:52:00,57.0,44.0,-100.00,SSW,208,1.0,5.0,61,0.00,,,0.00,0.000000,,2013-06-06 08:52:00,
2013-06-06 02:02:00,57.0,44.0,-100.00,SSW,208,1.0,5.0,61,0.00,,,0.00,0.000000,,2013-06-06 09:02:00,
2013-06-06 02:12:00,57.0,44.0,-100.00,SSW,208,1.0,5.0,61,0.00,,,0.00,0.000000,,2013-06-06 09:12:00,
2013-06-06 02:22:00,57.0,44.0,-100.00,SSW,208,1.0,5.0,61,0.00,,,0.00,0.000000,,2013-06-06 09:22:00,
2013-06-06 02:31:00,57.0,45.0,-100.00,NNW,336,0.0,4.0,63,0.00,,,-99.99,0.000000,,2013-06-06 09:31:00,
2013-06-06 02:53:00,57.0,45.0,-100.00,NNW,336,0.0,4.0,63,0.00,,,-99.99,0.000000,,2013-06-06 09:53:00,
2013-06-06 03:03:00,57.0,45.0,-100.00,NNW,336,0.0,4.0,63,0.00,,,-99.99,0.000000,,2013-06-06 10:03:00,
2013-06-06 03:12:00,57.0,45.0,-100.00,NNW,336,0.0,4.0,63,0.00,,,-99.99,0.000000,,2013-06-06 10:12:00,
2013-06-06 03:22:00,57.0,45.0,-100.00,NNW,336,0.0,4.0,63,0.00,,,-99.99,0.000000,,2013-06-06 10:22:00,
2013-06-06 03:31:00,56.0,44.0,-100.00,South,174,1.0,2.0,65,0.00,,,-99.99,0.000000,,2013-06-06 10:31:00,
2013-06-06 03:53:00,56.0,44.0,-100.00,South,174,1.0,2.0,65,0.00,,,-99.99,0.000000,,2013-06-06 10:53:00,
2013-06-06 04:02:00,56.0,44.0,-100.00,South,174,1.0,2.0,65,0.00,,,-99.99,0.000000,,2013-06-06 11:02:00,
2013-06-06 04:12:00,56.0,44.0,-100.00,South,174,1.0,2.0,65,0.00,,,-99.99,0.000000,,2013-06-06 11:12:00,
2013-06-06 04:22:00,56.0,44.0,-100.00,South,174,1.0,2.0,65,0.00,,,-99.99,0.000000,,2013-06-06 11:22:00,
2013-06-06 04:31:00,56.0,43.0,-100.00,South,182,3.0,4.0,62,0.00,,,0.00,0.000000,,2013-06-06 11:31:00,
2013-06-06 04:52:00,56.0,43.0,-100.00,South,182,3.0,4.0,62,0.00,,,0.00,0.000000,,2013-06-06 11:52:00,
2013-06-06 05:02:00,56.0,43.0,-100.00,South,182,3.0,4.0,62,0.00,,,0.00,0.000000,,2013-06-06 12:02:00,
2013-06-06 05:12:00,56.0,43.0,-100.00,South,182,3.0,4.0,62,0.00,,,0.00,0.000000,,2013-06-06 12:12:00,
2013-06-06 05:22:00,56.0,43.0,-100.00,South,182,3.0,4.0,62,0.00,,,0.00,0.000000,,2013-06-06 12:22:00,
2013-06-06 05:31:00,55.0,43.0,-100.00,SSE,159,2.0,5.0,63,0.00,,,0.00,0.000000,,2013-06-06 12:31:00,
2013-06-06 05:53:00,55.0,43.0,-100.00,SSE,159,2.0,5.0,63,0.00,,,0.00,0.000000,,2013-06-06 12:53:00,
2013-06-06 06:03:00,55.0,43.0,-100.00,SSE,159,2.0,5.0,63,0.00,,,0.00,0.000000,,2013-06-06 13:03:00,
2013-06-06 06:12:00,55.0,43.0,-100.00,SSE,159,2.0,5.0,63,0.00,,,0.00,0.000000,,2013-06-06 13:12:00,
2013-06-06 06:22:00,55.0,43.0,-100.00,SSE,159,2.0,5.0,63,0.00,,,0.00,0.000000,,2013-06-06 13:22:00,
2013-06-06 06:31:00,56.0,44.0,-100.00,SSW,194,2.0,4.0,64,0.00,,,0.00,26.000000,,2013-06-06 13:31:00,
2013-06-06 06:53:00,56.0,44.0,-100.00,SSW,194,2.0,4.0,64,0.00,,,0.00,26.000000,,2013-06-06 13:53:00,
2013-06-06 07:03:00,56.0,44.0,-100.00,SSW,194,2.0,4.0,64,0.00,,,0.00,26.000000,,2013-06-06 14:03:00,
2013-06-06 07:12:00,56.0,44.0,-100.00,SSW,194,2.0,4.0,64,0.00,,,0.00,26.000000,,2013-06-06 14:12:00,
2013-06-06 07:22:00,56.0,44.0,-100.00,SSW,194,2.0,4.0,64,0.00,,,0.00,26.000000,,2013-06-06 14:22:00,
2013-06-06 07:53:00,62.0,47.0,-100.00,North,356,1.0,4.0,59,0.00,,,0.00,142.000000,,2013-06-06 14:53:00,
2013-06-06 08:03:00,62.0,47.0,-100.00,North,356,1.0,4.0,59,0.00,,,0.00,142.000000,,2013-06-06 15:03:00,
2013-06-06 09:31:00,70.0,46.0,-100.00,South,184,4.0,7.0,42,-99.99,,,0.00,589.000000,,2013-06-06 16:31:00,
2013-06-06 09:53:00,70.0,46.0,-100.00,South,184,4.0,7.0,42,-99.99,,,0.00,589.000000,,2013-06-06 16:53:00,
2013-06-06 10:03:00,70.0,46.0,-100.00,South,184,4.0,7.0,42,-99.99,,,0.00,589.000000,,2013-06-06 17:03:00,
2013-06-06 10:12:00,70.0,46.0,-100.00,South,184,4.0,7.0,42,-99.99,,,0.00,589.000000,,2013-06-06 17:12:00,
2013-06-06 10:22:00,70.0,46.0,-100.00,South,184,4.0,7.0,42,-99.99,,,0.00,589.000000,,2013-06-06 17:22:00,
2013-06-06 10:31:00,74.0,45.0,-100.00,SSW,202,4.0,8.0,35,0.00,,,0.00,747.000000,,2013-06-06 17:31:00,
2013-06-06 10:53:00,74.0,45.0,-100.00,SSW,202,4.0,8.0,35,0.00,,,0.00,747.000000,,2013-06-06 17:53:00,
2013-06-06 11:03:00,74.0,45.0,-100.00,SSW,202,4.0,8.0,35,0.00,,,0.00,747.000000,,2013-06-06 18:03:00,
2013-06-06 11:12:00,74.0,45.0,-100.00,SSW,202,4.0,8.0,35,0.00,,,0.00,747.000000,,2013-06-06 18:12:00,
2013-06-06 11:22:00,74.0,45.0,-100.00,SSW,202,4.0,8.0,35,0.00,,,0.00,747.000000,,2013-06-06 18:22:00,
2013-06-06 11:31:00,78.0,44.0,-100.00,South,188,4.0,9.0,30,0.00,,,0.00,868.000000,,2013-06-06 18:31:00,
2013-06-06 11:53:00,78.0,44.0,-100.00,South,188,4.0,9.0,30,0.00,,,0.00,868.000000,,2013-06-06 18:53:00,
2013-06-06 12:02:00,78.0,44.0,-100.00,South,188,4.0,9.0,30,0.00,,,0.00,868.000000,,2013-06-06 19:02:00,
2013-06-06 12:12:00,78.0,44.0,-100.00,South,188,4.0,9.0,30,0.00,,,0.00,868.000000,,2013-06-06 19:12:00,
2013-06-06 12:23:00,78.0,44.0,-100.00,South,188,4.0,9.0,30,0.00,,,0.00,868.000000,,2013-06-06 19:23:00,
2013-06-06 12:31:00,81.0,44.0,-100.00,NNE,23,4.0,10.0,27,0.00,,,0.00,942.000000,,2013-06-06 19:31:00,
2013-06-06 12:53:00,81.0,44.0,-100.00,NNE,23,4.0,10.0,27,0.00,,,0.00,942.000000,,2013-06-06 19:53:00,
2013-06-06 13:03:00,81.0,44.0,-100.00,NNE,23,4.0,10.0,27,0.00,,,0.00,942.000000,,2013-06-06 20:03:00,
2013-06-06 13:12:00,81.0,44.0,-100.00,NNE,23,4.0,10.0,27,0.00,,,0.00,942.000000,,2013-06-06 20:12:00,
2013-06-06 13:22:00,81.0,44.0,-100.00,NNE,23,4.0,10.0,27,0.00,,,0.00,942.000000,,2013-06-06 20:22:00,
2013-06-06 13:31:00,83.0,45.0,-100.00,SE,133,4.0,12.0,26,0.00,,,0.00,952.000000,,2013-06-06 20:31:00,
2013-06-06 13:53:00,83.0,45.0,-100.00,SE,133,4.0,12.0,26,0.00,,,0.00,952.000000,,2013-06-06 20:53:00,
2013-06-06 14:03:00,83.0,45.0,-100.00,SE,133,4.0,12.0,26,0.00,,,0.00,952.000000,,2013-06-06 21:03:00,
2013-06-06 14:12:00,83.0,45.0,-100.00,SE,133,4.0,12.0,26,0.00,,,0.00,952.000000,,2013-06-06 21:12:00,
2013-06-06 14:22:00,83.0,45.0,-100.00,SE,133,4.0,12.0,26,0.00,,,0.00,952.000000,,2013-06-06 21:22:00,
2013-06-06 14:31:00,84.0,44.0,-100.00,South,178,6.0,11.0,25,0.00,,,-99.99,916.000000,,2013-06-06 21:31:00,
2013-06-06 14:53:00,84.0,44.0,-100.00,South,178,6.0,11.0,25,0.00,,,-99.99,916.000000,,2013-06-06 21:53:00,
2013-06-06 15:02:00,84.0,44.0,-100.00,South,178,6.0,11.0,25,0.00,,,-99.99,916.000000,,2013-06-06 22:02:00,
2013-06-06 15:13:00,84.0,44.0,-100.00,South,178,6.0,11.0,25,0.00,,,-99.99,916.000000,,2013-06-06 22:13:00,
2013-06-06 15:23:00,84.0,44.0,-100.00,South,178,6.0,11.0,25,0.00,,,-99.99,916.000000,,2013-06-06 22:23:00,
2013-06-06 15:31:00,86.0,41.0,-100.00,SSE,162,5.0,11.0,21,0.00,,,0.00,868.000000,,2013-06-06 22:31:00,
2013-06-06 15:53:00,86.0,41.0,-100.00,SSE,162,5.0,11.0,21,0.00,,,0.00,868.000000,,2013-06-06 22:53:00,
2013-06-06 16:02:00,86.0,41.0,-100.00,SSE,162,5.0,11.0,21,0.00,,,0.00,868.000000,,2013-06-06 23:02:00,
2013-06-06 16:12:00,86.0,41.0,-100.00,SSE,162,5.0,11.0,21,0.00,,,0.00,868.000000,,2013-06-06 23:12:00,
2013-06-06 16:22:00,86.0,41.0,-100.00,SSE,162,5.0,11.0,21,0.00,,,0.00,868.000000,,2013-06-06 23:22:00,
2013-06-06 16:31:00,87.0,44.0,-100.00,SSW,197,5.0,14.0,22,0.00,,,0.00,732.000000,,2013-06-06 23:31:00,
2013-06-06 16:52:00,87.0,44.0,-100.00,SSW,197,5.0,14.0,22,0.00,,,0.00,732.000000,,2013-06-06 23:52:00,
2013-06-06 17:02:00,87.0,44.0,-100.00,SSW,197,5.0,14.0,22,0.00,,,0.00,732.000000,,2013-06-07 00:02:00,
2013-06-06 17:12:00,87.0,44.0,-100.00,SSW,197,5.0,14.0,22,0.00,,,0.00,732.000000,,2013-06-07 00:12:00,
2013-06-06 17:22:00,87.0,44.0,-100.00,SSW,197,5.0,14.0,22,0.00,,,0.00,732.000000,,2013-06-07 00:22:00,
2013-06-06 17:31:00,86.0,43.0,-100.00,WSW,252,4.0,10.0,22,0.00,,,0.00,553.000000,,2013-06-07 00:31:00,
2013-06-06 17:52:00,86.0,43.0,-100.00,WSW,252,4.0,10.0,22,0.00,,,0.00,553.000000,,2013-06-07 00:52:00,
2013-06-06 18:02:00,86.0,43.0,-100.00,WSW,252,4.0,10.0,22,0.00,,,0.00,553.000000,,2013-06-07 01:02:00,
2013-06-06 18:12:00,86.0,43.0,-100.00,WSW,252,4.0,10.0,22,0.00,,,0.00,553.000000,,2013-06-07 01:12:00,
2013-06-06 18:22:00,86.0,43.0,-100.00,WSW,252,4.0,10.0,22,0.00,,,0.00,553.000000,,2013-06-07 01:22:00,
2013-06-06 18:31:00,78.0,42.0,-100.00,West,260,7.0,15.0,28,0.00,,,0.00,344.000000,,2013-06-07 01:31:00,
2013-06-06 18:52:00,78.0,42.0,-100.00,West,260,7.0,15.0,28,0.00,,,0.00,344.000000,,2013-06-07 01:52:00,
2013-06-06 19:02:00,78.0,42.0,-100.00,West,260,7.0,15.0,28,0.00,,,0.00,344.000000,,2013-06-07 02:02:00,
2013-06-06 19:12:00,78.0,42.0,-100.00,West,260,7.0,15.0,28,0.00,,,0.00,344.000000,,2013-06-07 02:12:00,
2013-06-06 19:22:00,78.0,42.0,-100.00,West,260,7.0,15.0,28,0.00,,,0.00,344.000000,,2013-06-07 02:22:00,
2013-06-06 19:31:00,73.0,46.0,-100.00,South,190,5.0,13.0,38,0.00,,,0.00,97.000000,,2013-06-07 02:31:00,
2013-06-06 19:52:00,73.0,46.0,-100.00,South,190,5.0,13.0,38,0.00,,,0.00,97.000000,,2013-06-07 02:52:00,
2013-06-06 20:02:00,73.0,46.0,-100.00,South,190,5.0,13.0,38,0.00,,,0.00,97.000000,,2013-06-07 03:02:00,
2013-06-06 20:12:00,73.0,46.0,-100.00,South,190,5.0,13.0,38,0.00,,,0.00,97.000000,,2013-06-07 03:12:00,
2013-06-06 20:22:00,73.0,46.0,-100.00,South,190,5.0,13.0,38,0.00,,,0.00,97.000000,,2013-06-07 03:22:00,
2013-06-06 20:31:00,69.0,46.0,-100.00,SW,225,4.0,11.0,43,0.00,,,0.00,47.000000,,2013-06-07 03:31:00,
2013-06-06 20:53:00,69.0,46.0,-100.00,SW,225,4.0,11.0,43,0.00,,,0.00,47.000000,,2013-06-07 03:53:00,
2013-06-06 21:03:00,69.0,46.0,-100.00,SW,225,4.0,11.0,43,0.00,,,0.00,47.000000,,2013-06-07 04:03:00,
2013-06-06 21:12:00,69.0,46.0,-100.00,SW,225,4.0,11.0,43,0.00,,,0.00,47.000000,,2013-06-07 04:12:00,
2013-06-06 21:22:00,69.0,46.0,-100.00,SW,225,4.0,11.0,43,0.00,,,0.00,47.000000,,2013-06-07 04:22:00,
2013-06-06 21:31:00,65.0,47.0,-100.00,SSW,203,5.0,9.0,52,0.00,,,0.00,3.000000,,2013-06-07 04:31:00,
2013-06-06 21:53:00,65.0,47.0,-100.00,SSW,203,5.0,9.0,52,0.00,,,0.00,3.000000,,2013-06-07 04:53:00,
2013-06-06 22:03:00,65.0,47.0,-100.00,SSW,203,5.0,9.0,52,0.00,,,0.00,3.000000,,2013-06-07 05:03:00,
2013-06-06 22:12:00,65.0,47.0,-100.00,SSW,203,5.0,9.0,52,0.00,,,0.00,3.000000,,2013-06-07 05:12:00,
2013-06-06 22:22:00,65.0,47.0,-100.00,SSW,203,5.0,9.0,52,0.00,,,0.00,3.000000,,2013-06-07 05:22:00,
2013-06-06 22:31:00,64.0,47.0,-100.00,SSW,194,5.0,10.0,55,0.00,,,-99.99,0.000000,,2013-06-07 05:31:00,
2013-06-06 22:52:00,64.0,47.0,-100.00,SSW,194,5.0,10.0,55,0.00,,,-99.99,0.000000,,2013-06-07 05:52:00,
2013-06-06 23:02:00,64.0,47.0,-100.00,SSW,194,5.0,10.0,55,0.00,,,-99.99,0.000000,,2013-06-07 06:02:00,
2013-06-06 23:12:00,64.0,47.0,-100.00,SSW,194,5.0,10.0,55,0.00,,,-99.99,0.000000,,2013-06-07 06:12:00,
2013-06-06 23:22:00,64.0,47.0,-100.00,SSW,194,5.0,10.0,55,0.00,,,-99.99,0.000000,,2013-06-07 06:22:00,
2013-06-06 23:31:00,61.0,46.0,-100.00,SSW,192,5.0,9.0,58,0.00,,,0.00,0.000000,,2013-06-07 06:31:00,
2013-06-06 23:52:00,61.0,46.0,-100.00,SSW,192,5.0,9.0,58,0.00,,,0.00,0.000000,,2013-06-07 06:52:00,